7 * 24
多渠道服务支持
STARLINK-11608 是 SpaceX Starlink 卫星互联网项目中的一颗低轨卫星,属于第二代 Starlink 卫星星座的一部分。该卫星于2023年发射,旨在为全球用户提供高速、低延迟的宽带互联网服务。它运行在约550公里高度的近地轨道,配备先进通信设备和可展开的太阳能电池板,支持更高效的网络连接。Starlink 项目致力于改善偏远地区的网络覆盖,同时为城市用户提供可靠的互联网接入,是 SpaceX 构建全球卫星互联网基础设施的重要组成部分。
美国
(US)
| 数据来源 | 国际轨道数据 |
| 星历时间: | 2025-12-21T07:41:15+0800 23小时前 查看轨道信息 |
| 半长轴: | 6734.295km |
| 偏心率: | 0.0005086 |
| 轨道倾角: | 43.000° |
| 近地点辐角 | 242.993° |
| 升交点赤经 | 226.444° |
| 平近点角 | 117.042° |
| 近地点: | 352.732km |
| 远地点: | 359.584km |
| 周期: | 91.664分钟 |
| 每日圈数: | 15.709581 |